(298312) = 2003 EE18

Discovered at Anderson Mesa on 2003-03-06 by LONEOS.

Orbit

Orbit type: Main Belt

Note: WebGL enabled browser required.

epoch2024-03-31.0
epoch JD2460400.5
perihelion date2026-11-18.70082
perihelion JD2461363.20082
argument of perihelion (°)96.00466
ascending node (°)116.55620
inclination (°)6.36331
eccentricity0.1179261
perihelion distance (AU)2.8488869
Tisserand w.r.t. Jupiter3.2
ΔV w.r.t. Earth (km/sec)10.7
semimajor axis (AU)3.2297600
mean anomaly (°)196.52934
mean daily motion (°/day)0.16980420
aphelion distance (AU)3.611
period (years)5.8
P-vector [x]-0.83733959
P-vector [y]-0.53511591
P-vector [z]-0.11186321
Q-vector [x]0.53761866
Q-vector [y]-0.76892495
Q-vector [z]-0.34600664
absolute magnitude15.59
phase slope0.15
uncertainty0
referenceMPEC 2024-C82
observations used565
oppositions17
arc length (days)11073
first opposition used1993
last opposition used2023
residual rms (arc-secs)0.74
perturbers coarse indicatorM-v
perturbers precise indicator003Ek
first observation date used1993-07-19.0
last observation date used2023-11-12.0
computer nameMPCLINUX
JD of orbit computation2456731.492528
perihelion JD uncertainty (days)2.3078E-04
argument of perihelion uncertainty (°)6.4824E-05
ascending node uncertainty (°)5.4990E-05
inclination uncertainty (°)7.1421E-06
eccentricity uncertainty 8.1919E-08
perihelion distance uncertainty (AU)2.8305E-07
Minimum Orbit Intersection Distances (in AU)
for orbit epoch: 2460200.5, reference: E2024-C82
Mercury2.39425
Venus2.1151
Earth1.83777
Mars1.23269
Jupiter1.3994
Saturn5.56311
Uranus15.4439
Neptune26.2409

Observations

578 total observations over interval: 1993 07 19.31617 – 2023 11 12.352436
These data are available for download (format description).

Date (UT) J2000 RA J2000 Dec Magn Location Ref
1993 07 19.31617 20 18 06.05 -20 07 22.1 19.8 V 691 – Steward Observatory, Kitt Peak-Spacewatch MPS 240672
1993 07 19.34234 20 18 04.68 -20 07 30.6   691 – Steward Observatory, Kitt Peak-Spacewatch MPS 240672
1993 07 19.39043 20 18 02.35 -20 07 43.1   691 – Steward Observatory, Kitt Peak-Spacewatch MPS 240672
2003 02 08.44894 11 00 25.74 +12 25 28.3 20.8   608 – Haleakala-AMOS MPS 155843
2003 02 08.45951 11 00 25.38 +12 25 31.5 21.0   608 – Haleakala-AMOS MPS 155843
2003 02 08.47013 11 00 25.05 +12 25 35.4 20.9   608 – Haleakala-AMOS MPS 155843
2003 02 28.30177 10 47 08.35 +14 32 23.0 19.1   704 – Lincoln Laboratory ETS, New Mexico MPS 78315
2003 02 28.31495 10 47 07.71 +14 32 27.7 19.9   704 – Lincoln Laboratory ETS, New Mexico MPS 78315
2003 02 28.32990 10 47 07.09 +14 32 33.5 19.7   704 – Lincoln Laboratory ETS, New Mexico MPS 78315
2003 02 28.35882 10 47 05.65 +14 32 44.4 20.0   704 – Lincoln Laboratory ETS, New Mexico MPS 78315
2003 03 06.16460 10 42 45.81 +15 07 35.3 19.3 R 699 – Lowell Observatory-LONEOS MPS 74445
2003 03 06.17958 10 42 45.08 +15 07 39.7   699 – Lowell Observatory-LONEOS MPS 74445
2003 03 06.19460 10 42 44.46 +15 07 45.7   699 – Lowell Observatory-LONEOS MPS 74445
2003 03 06.20961 10 42 43.73 +15 07 49.3   699 – Lowell Observatory-LONEOS MPS 74445
2003 03 07.18613 10 42 00.41 +15 13 23.8 19.1 R 699 – Lowell Observatory-LONEOS MPS 74445
2003 03 07.20215 10 41 59.63 +15 13 29.8   699 – Lowell Observatory-LONEOS MPS 74445
2003 03 07.21812 10 41 58.98 +15 13 33.8   699 – Lowell Observatory-LONEOS MPS 74445
2003 03 07.23413 10 41 58.22 +15 13 40.0   699 – Lowell Observatory-LONEOS MPS 74445
2003 03 24.41736 10 30 41.46 +16 31 33.4 20.7   608 – Haleakala-AMOS MPS 155843
2003 03 24.42875 10 30 41.08 +16 31 35.1 20.3   608 – Haleakala-AMOS MPS 155843
2003 03 24.43969 10 30 40.68 +16 31 37.3 21.1   608 – Haleakala-AMOS MPS 155843
2005 08 27.36423 22 55 48.04 -13 12 23.9 20.8   644 – Palomar Mountain/NEAT MPS 240672
2005 08 27.38705 22 55 47.06 -13 12 31.6 19.9   644 – Palomar Mountain/NEAT MPS 240672
2005 08 27.41088 22 55 46.04 -13 12 39.4 20.2   644 – Palomar Mountain/NEAT MPS 240672
2006 11 23.23792 02 14 57.62 +04 48 04.8 20.8 V G96 – Mt. Lemmon Survey MPS 240672
2006 11 23.24527 02 14 57.33 +04 48 04.1 21.1 V G96 – Mt. Lemmon Survey MPS 240672
2006 11 23.25269 02 14 57.04 +04 48 03.2 21.0 V G96 – Mt. Lemmon Survey MPS 240672
2006 11 23.26001 02 14 56.76 +04 48 02.7 20.6 V G96 – Mt. Lemmon Survey MPS 240672
2009 02 21.40665 12 49 48.47 +03 14 22.5 19.8   704 – Lincoln Laboratory ETS, New Mexico MPS 277551
2009 02 21.41861 12 49 48.26 +03 14 27.0 19.6   704 – Lincoln Laboratory ETS, New Mexico MPS 277551
2009 02 21.44281 12 49 47.87 +03 14 34.8 20.0   704 – Lincoln Laboratory ETS, New Mexico MPS 277551
2009 02 28.39165 12 47 36.49 +03 51 00.0 19.9 V G96 – Mt. Lemmon Survey MPS 278593
2009 02 28.39854 12 47 36.34 +03 51 02.7 19.8 V G96 – Mt. Lemmon Survey MPS 278593
2009 02 28.40543 12 47 36.16 +03 51 04.8 20.0 V G96 – Mt. Lemmon Survey MPS 278593
2009 02 28.41220 12 47 35.98 +03 51 07.0 19.9 V G96 – Mt. Lemmon Survey MPS 278594
2009 03 01.38769 12 47 12.60 +03 56 36.0   691 – Steward Observatory, Kitt Peak-Spacewatch MPS 278594
2009 03 01.40532 12 47 12.14 +03 56 42.0   691 – Steward Observatory, Kitt Peak-Spacewatch MPS 278594
2009 03 01.42058 12 47 11.74 +03 56 47.0   691 – Steward Observatory, Kitt Peak-Spacewatch MPS 278594
2009 03 16.30878 12 39 09.67 +05 26 22.4 20.3 R 683 – Goodricke-Pigott Observatory, Tucson MPS 280034
2009 03 16.32219 12 39 09.08 +05 26 23.7 20.1 R 683 – Goodricke-Pigott Observatory, Tucson MPS 280034
2009 03 17.02054 12 38 41.83 +05 30 46.5 19.3 V J75 – OAM Observatory, La Sagra MPS 281237
2009 03 17.03319 12 38 41.30 +05 30 49.6 18.9 V J75 – OAM Observatory, La Sagra MPS 281237
2009 03 17.04598 12 38 40.80 +05 30 55.1 18.7 V J75 – OAM Observatory, La Sagra MPS 281237
2009 03 18.04109 12 38 01.28 +05 37 01.3 19.4 V J75 – OAM Observatory, La Sagra MPS 281237
2009 03 18.05422 12 38 00.81 +05 37 05.5 19.4 V J75 – OAM Observatory, La Sagra MPS 281237
2009 03 18.06690 12 38 00.27 +05 37 12.0 19.1 V J75 – OAM Observatory, La Sagra MPS 281237
2009 03 19.28659 12 37 11.24 +05 44 37.8 19.5   704 – Lincoln Laboratory ETS, New Mexico MPS 280034
2009 03 19.29820 12 37 10.76 +05 44 42.6 19.8   704 – Lincoln Laboratory ETS, New Mexico MPS 280034
2009 03 19.32143 12 37 09.80 +05 44 51.9 19.6   704 – Lincoln Laboratory ETS, New Mexico MPS 280034
2009 03 19.33305 12 37 09.31 +05 44 56.6 19.3   704 – Lincoln Laboratory ETS, New Mexico MPS 280034
2009 03 21.00477 12 36 00.60 +05 55 04.0 19.2 V J75 – OAM Observatory, La Sagra MPS 281237
2009 03 21.01788 12 36 00.02 +05 55 08.3 19.0 V J75 – OAM Observatory, La Sagra MPS 281237
2009 03 21.03095 12 35 59.41 +05 55 13.4 18.9 V J75 – OAM Observatory, La Sagra MPS 281237
2009 03 25.31694 12 32 58.12 +06 20 33.5 19.1 V G96 – Mt. Lemmon Survey MPS 281237
2009 03 25.32365 12 32 57.80 +06 20 35.6 19.1 V G96 – Mt. Lemmon Survey MPS 281237
2009 03 25.33700 12 32 57.22 +06 20 40.3 19.0 V G96 – Mt. Lemmon Survey MPS 281237
2009 03 25.34380 12 32 56.94 +06 20 42.7 19.1 V G96 – Mt. Lemmon Survey MPS 281237
2009 03 29.58125 12 29 54.07 +06 44 24.1 18.8 R D29 – Purple Mountain Observatory, XuYi Station MPS 282505
2009 03 29.60186 12 29 53.10 +06 44 30.2 19.2 R D29 – Purple Mountain Observatory, XuYi Station MPS 282505
2009 03 29.61883 12 29 52.36 +06 44 35.9 19.0 R D29 – Purple Mountain Observatory, XuYi Station MPS 282505
2009 03 29.64020 12 29 51.39 +06 44 42.3 19.0 R D29 – Purple Mountain Observatory, XuYi Station MPS 282505
2009 04 03.24351 12 26 33.39 +07 08 18.3 19.3 V 703 – Catalina Sky Survey MPS 283572
2009 04 03.25075 12 26 33.07 +07 08 20.1 19.1 V 703 – Catalina Sky Survey MPS 283572
2009 04 03.25801 12 26 32.71 +07 08 21.9 19.2 V 703 – Catalina Sky Survey MPS 283572
2009 04 03.26536 12 26 32.46 +07 08 24.7 19.2 V 703 – Catalina Sky Survey MPS 283572
2010 04 08.99019 19 17 57.45 -18 55 13.1   C51 – WISE MPS 341703
2010 04 09.12250 19 18 03.97 -18 55 01.8   C51 – WISE MPS 341703
2010 04 09.519407 19 18 23.41 -18 54 30.9   C51 – WISE MPS 341703
2010 04 09.585624 19 18 26.64 -18 54 26.0   C51 – WISE MPS 341703
2010 04 09.71793 19 18 33.06 -18 54 16.5   C51 – WISE MPS 341703
2010 04 09.784016 19 18 36.29 -18 54 10.2   C51 – WISE MPS 341703
2010 04 09.850231 19 18 39.48 -18 54 05.6   C51 – WISE MPS 341703
2010 04 09.98254 19 18 45.89 -18 53 55.1   C51 – WISE MPS 341703
2010 04 10.114840 19 18 52.26 -18 53 46.0   C51 – WISE MPS 341703
2011 08 27.49763 00 09 55.236 -06 39 01.10 20.8 w F51 – Pan-STARRS 1, Haleakala MPS 389144
2011 08 27.51159 00 09 54.786 -06 39 05.58 20.8 w F51 – Pan-STARRS 1, Haleakala MPS 389144
2011 08 27.52555 00 09 54.328 -06 39 10.01 20.7 w F51 – Pan-STARRS 1, Haleakala MPS 389144
2011 08 27.53955 00 09 53.891 -06 39 14.31 20.8 w F51 – Pan-STARRS 1, Haleakala MPS 389144
2011 09 04.50160 00 05 21.951 -07 22 06.29 20.4 i F51 – Pan-STARRS 1, Haleakala MPS 391070
2011 09 04.51301 00 05 21.514 -07 22 09.89 20.3 i F51 – Pan-STARRS 1, Haleakala MPS 391070
2011 09 21.36240 23 54 05.593 -08 52 25.74 21.2 w F51 – Pan-STARRS 1, Haleakala MPS 391070
2011 09 21.37646 23 54 04.993 -08 52 30.38 20.7 w F51 – Pan-STARRS 1, Haleakala MPS 391070
2011 09 21.40456 23 54 03.778 -08 52 38.55 20.7 w F51 – Pan-STARRS 1, Haleakala MPS 391070
2011 09 21.44343 23 54 01.98 -08 52 50.8 20.6 V G96 – Mt. Lemmon Survey MPS 391070
2011 09 21.44637 23 54 01.83 -08 52 51.5 20.7 V G96 – Mt. Lemmon Survey MPS 391070
2011 09 21.44929 23 54 01.76 -08 52 52.4 20.3 V G96 – Mt. Lemmon Survey MPS 391070
2011 09 21.45220 23 54 01.62 -08 52 53.3 20.8 V G96 – Mt. Lemmon Survey MPS 391070
2012 10 20.34214 03 47 56.07 +11 57 33.7 20.3 V G96 – Mt. Lemmon Survey MPS 439397
2012 10 20.35121 03 47 55.82 +11 57 32.0 20.4 V G96 – Mt. Lemmon Survey MPS 439397
2012 10 20.36038 03 47 55.53 +11 57 30.4 19.9 V G96 – Mt. Lemmon Survey MPS 439397
2012 10 20.36952 03 47 55.21 +11 57 29.3 20.6 V G96 – Mt. Lemmon Survey MPS 439397
2012 11 07.367016 03 35 59.020 +11 09 20.58 20.5 w F51 – Pan-STARRS 1, Haleakala MPS 441526
2012 11 07.397378 03 35 57.613 +11 09 15.94 20.4 w F51 – Pan-STARRS 1, Haleakala MPS 441526
